When you browse on this site, cookies collect data to enhance your experience and personalize the content and advertising you see.
Visit our Privacy Policy to learn more. By continuing to use the site, you agree to this use of cookies and data.
  • en France
  • Liste des pays
  • À 7 jours
  • Température de l'eau
  • Carte météo
  • Widgets météo
  • user-avatar
    Se connecter

    Météo par heure à Kamloops

    Ce jour, 10 Avril, Vendredi

    Heure Température Précipitation Vent Pression Humidité
    00:00 +5°C° 0 mm 0 m/s 704 mmHg 90%
    01:00 +4°C° 0 mm 0 m/s 704 mmHg 91%
    02:00 +4°C° 0 mm 0 m/s 704 mmHg 91%
    03:00 +4°C° 0 mm 0 m/s 704 mmHg 92%
    04:00 +4°C° 0 mm 0 m/s 705 mmHg 92%
    05:00 +6°C° 0.1 mm 1 m/s 705 mmHg 92%
    06:00 +6°C° 0.1 mm 1 m/s 705 mmHg 92%
    07:00 +6°C° 0.1 mm 1 m/s 705 mmHg 92%
    08:00 +8°C° 0 mm 1 m/s 705 mmHg 87%
    09:00 +9°C° 0 mm 1 m/s 705 mmHg 82%
    10:00 +10°C° 0 mm 2 m/s 705 mmHg 76%
    11:00 +10°C° 0.1 mm 2 m/s 704 mmHg 72%
    12:00 +12°C° 0.1 mm 2 m/s 704 mmHg 67%
    13:00 +13°C° 0.1 mm 2 m/s 704 mmHg 62%
    14:00 +12°C° 0 mm 2 m/s 703 mmHg 64%
    15:00 +12°C° 0 mm 2 m/s 703 mmHg 65%
    16:00 +12°C° 0 mm 2 m/s 703 mmHg 67%
    17:00 +9°C° 0 mm 2 m/s 702 mmHg 73%
    18:00 +7°C° 0 mm 2 m/s 702 mmHg 79%
    19:00 +6°C° 0 mm 2 m/s 702 mmHg 85%
    20:00 +5°C° 0 mm 2 m/s 702 mmHg 84%
    21:00 +5°C° 0 mm 2 m/s 703 mmHg 84%
    22:00 +4°C° 0 mm 2 m/s 703 mmHg 83%
    23:00 +3°C° 0 mm 3 m/s 704 mmHg 82%

    Demain, 11 Avril, Samedi

    Heure Température Précipitation Vent Pression Humidité
    00:00 +2°C° 0 mm 3 m/s 704 mmHg 81%
    01:00 0°C° 0 mm 4 m/s 705 mmHg 80%
    02:00 -1°C° 0 mm 4 m/s 705 mmHg 79%
    03:00 -2°C° 0 mm 4 m/s 706 mmHg 78%
    04:00 -2°C° 0 mm 5 m/s 707 mmHg 78%
    05:00 -2°C° 0 mm 5 m/s 707 mmHg 73%
    06:00 -2°C° 0 mm 5 m/s 708 mmHg 68%
    07:00 -2°C° 0 mm 5 m/s 709 mmHg 63%
    08:00 -1°C° 0 mm 5 m/s 710 mmHg 56%
    09:00 +1°C° 0 mm 6 m/s 710 mmHg 48%
    10:00 +2°C° 0 mm 6 m/s 710 mmHg 40%
    11:00 +3°C° 0 mm 6 m/s 711 mmHg 38%
    12:00 +5°C° 0 mm 5 m/s 711 mmHg 36%
    13:00 +6°C° 0 mm 5 m/s 711 mmHg 34%
    14:00 +6°C° 0 mm 5 m/s 711 mmHg 34%
    15:00 +6°C° 0 mm 5 m/s 710 mmHg 34%
    16:00 +6°C° 0 mm 4 m/s 710 mmHg 35%
    17:00 +4°C° 0 mm 4 m/s 710 mmHg 41%
    18:00 +2°C° 0 mm 3 m/s 710 mmHg 48%
    19:00 +1°C° 0 mm 2 m/s 711 mmHg 54%
    20:00 +1°C° 0 mm 2 m/s 711 mmHg 56%
    21:00 -1°C° 0 mm 2 m/s 711 mmHg 58%
    22:00 0°C° 0 mm 1 m/s 712 mmHg 60%
    23:00 0°C° 0 mm 1 m/s 712 mmHg 61%

    Après-demain, 12 Avril, Dimanche

    Heure Température Précipitation Vent Pression Humidité
    00:00 0°C° 0 mm 1 m/s 712 mmHg 61%
    01:00 -1°C° 0 mm 1 m/s 712 mmHg 61%
    02:00 -1°C° 0 mm 1 m/s 712 mmHg 61%
    03:00 -2°C° 0 mm 0 m/s 712 mmHg 61%
    04:00 -2°C° 0 mm 0 m/s 712 mmHg 62%
    05:00 -1°C° 0 mm 0 m/s 712 mmHg 57%
    06:00 0°C° 0 mm 0 m/s 712 mmHg 52%
    07:00 +1°C° 0 mm 0 m/s 713 mmHg 47%
    08:00 +3°C° 0 mm 0 m/s 712 mmHg 41%
    09:00 +6°C° 0 mm 1 m/s 712 mmHg 35%
    10:00 +8°C° 0 mm 1 m/s 711 mmHg 29%
    11:00 +9°C° 0 mm 1 m/s 711 mmHg 27%
    12:00 +9°C° 0 mm 2 m/s 711 mmHg 26%
    13:00 +10°C° 0 mm 2 m/s 710 mmHg 24%
    14:00 +10°C° 0 mm 3 m/s 710 mmHg 25%
    15:00 +10°C° 0 mm 3 m/s 709 mmHg 25%
    16:00 +10°C° 0 mm 4 m/s 709 mmHg 26%
    17:00 +8°C° 0 mm 3 m/s 709 mmHg 34%
    18:00 +4°C° 0 mm 3 m/s 709 mmHg 42%
    19:00 +3°C° 0 mm 2 m/s 709 mmHg 49%
    20:00 +2°C° 0 mm 2 m/s 710 mmHg 54%
    21:00 +1°C° 0 mm 2 m/s 710 mmHg 58%
    22:00 +1°C° 0 mm 1 m/s 710 mmHg 62%
    23:00 +1°C° 0 mm 1 m/s 710 mmHg 64%

    13 Avril, Lundi

    Heure Température Précipitation Vent Pression Humidité
    00:00 0°C° 0 mm 1 m/s 711 mmHg 66%
    01:00 0°C° 0 mm 1 m/s 711 mmHg 68%
    02:00 0°C° 0 mm 1 m/s 711 mmHg 69%
    03:00 0°C° 0 mm 1 m/s 711 mmHg 70%
    04:00 -1°C° 0 mm 1 m/s 711 mmHg 71%
    05:00 +1°C° 0 mm 1 m/s 712 mmHg 65%
    06:00 +2°C° 0 mm 1 m/s 712 mmHg 58%
    07:00 +3°C° 0 mm 1 m/s 712 mmHg 52%
    08:00 +5°C° 0 mm 1 m/s 712 mmHg 44%
    09:00 +7°C° 0 mm 1 m/s 712 mmHg 36%
    10:00 +8°C° 0 mm 2 m/s 712 mmHg 27%
    11:00 +10°C° 0 mm 1 m/s 711 mmHg 26%
    12:00 +12°C° 0 mm 1 m/s 711 mmHg 24%
    13:00 +13°C° 0 mm 1 m/s 711 mmHg 22%
    14:00 +13°C° 0 mm 1 m/s 711 mmHg 23%
    15:00 +13°C° 0 mm 1 m/s 710 mmHg 24%
    16:00 +13°C° 0 mm 1 m/s 710 mmHg 25%
    17:00 +11°C° 0 mm 1 m/s 710 mmHg 32%
    18:00 +8°C° 0 mm 1 m/s 710 mmHg 38%
    19:00 +6°C° 0 mm 1 m/s 710 mmHg 45%
    20:00 +5°C° 0 mm 1 m/s 710 mmHg 48%
    21:00 +4°C° 0 mm 1 m/s 710 mmHg 51%
    22:00 +2°C° 0 mm 0 m/s 710 mmHg 54%
    23:00 +2°C° 0 mm 0 m/s 710 mmHg 56%

    14 Avril, Mardi

    Heure Température Précipitation Vent Pression Humidité
    00:00 +1°C° 0 mm 0 m/s 711 mmHg 59%
    01:00 +1°C° 0 mm 0 m/s 711 mmHg 61%
    02:00 0°C° 0 mm 0 m/s 711 mmHg 62%
    03:00 0°C° 0 mm 0 m/s 711 mmHg 64%
    04:00 0°C° 0 mm 0 m/s 711 mmHg 66%
    05:00 +1°C° 0 mm 0 m/s 711 mmHg 61%
    06:00 +3°C° 0 mm 0 m/s 711 mmHg 56%
    07:00 +4°C° 0 mm 0 m/s 712 mmHg 51%
    08:00 +7°C° 0 mm 0 m/s 711 mmHg 46%
    09:00 +9°C° 0 mm 0 m/s 711 mmHg 40%
    10:00 +12°C° 0 mm 1 m/s 711 mmHg 35%
    11:00 +14°C° 0 mm 1 m/s 711 mmHg 33%
    12:00 +15°C° 0 mm 1 m/s 711 mmHg 32%
    13:00 +16°C° 0 mm 1 m/s 710 mmHg 31%
    14:00 +16°C° 0 mm 1 m/s 710 mmHg 32%
    15:00 +16°C° 0 mm 1 m/s 710 mmHg 33%
    16:00 +16°C° 0 mm 1 m/s 709 mmHg 34%
    17:00 +14°C° 0 mm 1 m/s 709 mmHg 41%
    18:00 +11°C° 0 mm 1 m/s 709 mmHg 49%
    19:00 +9°C° 0 mm 1 m/s 708 mmHg 56%
    20:00 +8°C° 0 mm 1 m/s 708 mmHg 59%
    21:00 +7°C° 0 mm 1 m/s 709 mmHg 62%
    22:00 +7°C° 0 mm 1 m/s 709 mmHg 65%
    23:00 +6°C° 0 mm 1 m/s 709 mmHg 68%

    15 Avril, Mercredi

    Heure Température Précipitation Vent Pression Humidité
    00:00 +6°C° 0 mm 1 m/s 709 mmHg 71%
    01:00 +5°C° 0 mm 1 m/s 708 mmHg 73%
    02:00 +5°C° 0 mm 1 m/s 709 mmHg 76%
    03:00 +5°C° 0 mm 1 m/s 709 mmHg 79%
    04:00 +4°C° 0 mm 1 m/s 709 mmHg 81%
    05:00 +5°C° 0 mm 0 m/s 709 mmHg 76%
    06:00 +6°C° 0 mm 0 m/s 709 mmHg 72%
    07:00 +7°C° 0 mm 0 m/s 709 mmHg 67%
    08:00 +9°C° 0 mm 0 m/s 709 mmHg 61%
    09:00 +13°C° 0 mm 1 m/s 709 mmHg 56%
    10:00 +15°C° 0 mm 1 m/s 708 mmHg 50%
    11:00 +16°C° 0 mm 1 m/s 708 mmHg 47%
    12:00 +19°C° 0 mm 1 m/s 708 mmHg 43%
    13:00 +20°C° 0 mm 1 m/s 708 mmHg 40%
    14:00 +20°C° 0 mm 1 m/s 707 mmHg 40%
    15:00 +20°C° 0 mm 1 m/s 707 mmHg 39%
    16:00 +20°C° 0 mm 1 m/s 707 mmHg 39%
    17:00 +18°C° 0 mm 1 m/s 706 mmHg 47%
    18:00 +15°C° 0 mm 1 m/s 706 mmHg 55%
    19:00 +12°C° 0 mm 1 m/s 705 mmHg 64%
    20:00 +11°C° 0 mm 1 m/s 706 mmHg 67%
    21:00 +9°C° 0 mm 0 m/s 706 mmHg 70%
    22:00 +9°C° 0 mm 0 m/s 706 mmHg 72%
    23:00 +8°C° 0 mm 0 m/s 706 mmHg 75%
    Voir plus